Location: *
(41.0833°N, 73.4167°W)
Time: 00:48:12
(UTC+00:00)

Daily predictions for brighter satellites

Satellite Brightness Start Highest point End
(mag) Time Altitude Azimuth Time Altitude Azimuth Time Altitude Azimuth
Abrixas rocket 4.5 00:03:25 10° NW 00:04:58 18° NNW 00:04:58 18° NNW
Cosmos 1300 4.2 00:08:11 10° SSW 00:11:44 36° WNW 00:15:18 10° N
Cosmos 1939 Rocket 3.8 00:13:04 21° SSW 00:15:25 47° W 00:19:22 10° NNW
Ariane Rocket 3.4 00:16:38 15° S 00:20:51 61° WSW 00:25:56 10° NNW
BREEZE M DEB (TANK) 3.4 00:18:40 10° WNW 00:21:50 56° SSW 00:23:04 45° SSE
Cosmos 1833 Rocket 4.5 00:19:07 10° NW 00:23:56 30° WSW 00:28:43 10° SSW
Cosmos 468 Rocket 4.2 00:21:32 10° SSW 00:26:47 68° WNW 00:29:09 33° N
Cosmos 2173 Rocket 4.2 00:22:09 10° NNW 00:28:19 68° W 00:34:23 10° S
MOS 1 4.2 00:29:08 61° S 00:30:09 82° WSW 00:35:50 10° NNW
Cosmos 1802 Rocket 4.2 00:31:17 10° NNW 00:37:41 70° W 00:41:23 27° S
Cosmos 2123 Rocket 3.9 00:31:31 10° S 00:37:59 85° NE 00:44:08 10° N
Cosmos 1937 Rocket 4.4 00:36:41 10° NNW 00:40:01 41° NNW 00:40:01 41° NNW
Cosmos 990 Rocket 4.4 00:36:42 10° NNW 00:41:04 58° NW 00:41:04 58° NW
Cosmos 1725 Rocket 4.1 00:44:51 10° N 00:50:18 68° NNW 00:50:18 68° NNW
Cosmos 2082 Rocket 4.2 00:50:52 10° NW 00:55:20 24° W 00:59:43 10° SSW
SJ 16-02 3.7 00:52:35 10° NNW 00:53:49 18° NNW 00:53:49 18° NNW
Lacrosse 5 3.8 01:00:56 10° WNW 01:04:28 25° WSW 01:04:28 25° WSW
ADEOS Rocket 3.6 01:06:05 10° N 01:13:38 68° WNW 01:20:32 10° SSW
H-2A R/B 4.2 01:25:30 22° NNW 01:25:30 22° NNW 01:27:31 10° NNW
ATLAS 3B R/B 4.1 01:38:39 10° WSW 01:44:22 31° NW 01:44:22 31° NW
CENTAUR R/B 4.3 01:47:06 10° W 01:51:40 27° NW 01:51:40 27° NW
ATLAS 3B R/B 4.2 07:25:19 29° NE 07:25:19 29° NE 07:30:50 10° E
CENTAUR R/B 4.1 07:31:02 35° N 07:33:16 42° NE 07:41:19 10° ESE
Cosmos 2237 Rocket 4.2 07:39:30 24° ENE 07:39:30 24° ENE 07:42:19 10° NE
ATLAS 2AS CENTAUR R/B 3.2 07:56:05 67° NE 07:56:05 67° NE 08:02:53 10° NE
IDEFIX/ARIANE 42P 3.7 08:10:46 10° NNE 08:14:52 41° ENE 08:14:52 41° ENE
NOSS 3-2 (A) 4.3 08:26:20 53° S 08:26:20 53° S 08:32:51 10° SSE
USA 267 3.2 08:22:38 10° NE 08:28:51 73° NNW 08:28:51 73° NNW
RESURS DK-1 4.3 08:32:06 28° E 08:32:06 28° E 08:34:54 10° NE
SL-16 R/B 3.7 08:29:23 17° SSE 08:32:55 34° ESE 08:37:58 10° NE
BREEZE-M DEB (TANK) 4.5 08:42:02 42° S 08:43:12 47° SSE 08:46:51 10° E
Cosmos 2278 Rocket 3.2 08:46:15 34° S 08:46:15 34° S 08:49:23 10° SSE
MSX 4.3 08:40:15 10° NNE 08:45:55 59° E 08:51:32 10° S
BREEZE-M DEB (TANK) 4.1 08:49:26 27° NNE 08:49:26 27° NNE 08:50:57 10° NE
NOSS 3-2 (C) 4.0 08:48:33 50° WNW 08:50:39 68° WSW 08:59:04 10° SSE
Cosmos 2333 Rocket 3.9 08:57:40 19° NNW 08:57:40 19° NNW 09:00:00 10° N
Cosmos 1140 Rocket 3.3 08:56:36 88° SW 08:56:39 89° WNW 09:01:51 10° NNE
USA 32 4.3 08:59:36 54° NNW 08:59:36 54° NNW 09:03:47 10° N
Cosmos 1954 Rocket 4.1 08:59:02 40° S 09:00:54 73° ESE 09:06:07 10° NNE
NOSS 0 Rocket 4.3 09:02:06 45° NW 09:02:06 45° NW 09:07:31 10° NNE
USA 234 3.6 08:55:17 10° ESE 09:01:42 63° NE 09:05:51 24° NW
NOSS 3-4 (A) 3.6 09:05:19 49° NW 09:05:34 49° NW 09:11:44 10° NNE
NOSS 3-4 (C) 3.6 09:05:23 49° WNW 09:05:40 50° NW 09:11:51 10° NNE
Cosmos 2219 Rocket 4.0 09:08:43 17° NNW 09:08:43 17° NNW 09:10:47 10° N
Cosmos 2327 Rocket 4.4 09:01:41 10° S 09:07:55 90° ENE 09:14:06 10° N
ADEOS 3.5 09:03:08 10° N 09:08:16 62° WNW 09:08:16 62° WNW
Cosmos 1726 4.2 09:06:40 10° NNE 09:09:52 28° ENE 09:13:05 10° SE
PAYLOAD A 4.0 09:05:54 10° NNE 09:10:50 76° ESE 09:15:56 10° S
Cosmos 2154 Rocket 4.0 09:06:59 10° S 09:13:10 81° E 09:19:24 10° N
ATLAS 3B R/B 2.6 09:12:40 30° NW 09:16:12 68° WSW 09:23:02 10° SSE
Cosmos 1610 Rocket 4.4 09:11:45 10° S 09:18:02 85° W 09:24:26 10° N
Cosmos 2058 Rocket 4.3 09:14:50 10° N 09:19:05 43° ENE 09:23:20 10° SSE
Cosmos 2237 Rocket 2.8 09:21:22 37° NW 09:21:22 37° NW 09:26:33 10° N
Cosmos 2184 Rocket 4.0 09:19:05 28° SW 09:22:11 53° WNW 09:28:21 10° N
BREEZE-M DEB (TANK) 4.4 09:11:42 10° SW 09:22:13 38° SSE 09:25:31 10° E
CZ-2C R/B 2.5 09:18:40 10° NNE 09:23:53 82° ESE 09:28:59 10° S
CENTAUR R/B 3.2 09:18:19 19° NW 09:24:25 59° WSW 09:32:54 10° SSE
SJ-6F 4.3 09:24:00 10° N 09:28:10 81° WNW 09:31:22 16° SSW
Cosmos 1707 4.4 09:31:10 20° NNW 09:31:10 20° NNW 09:32:40 10° N
Cosmos 1953 3.0 09:33:08 37° SW 09:33:08 37° SW 09:35:49 10° S
Nadezhda 3 Rocket 3.9 09:25:42 10° N 09:32:05 81° W 09:38:22 10° S
H-2A R/B 2.8 09:32:16 10° N 09:36:19 45° WNW 09:37:03 41° WSW
Cosmos 1674 3.6 09:32:45 10° S 09:36:20 49° E 09:39:56 10° NNE
Cosmos 2369 Rocket 4.1 09:32:00 10° N 09:36:44 27° NE 09:41:27 10° ESE
Meteor 1-31 Rocket 2.6 09:32:59 10° NNE 09:36:48 88° WNW 09:40:36 10° SSW
Cosmos 1892 Rocket 3.4 09:32:44 10° S 09:37:09 79° W 09:41:34 10° N
Cosmos 2341 Rocket 4.1 09:37:16 10° S 09:43:31 82° E 09:49:45 10° N
Cosmos 1741 Rocket 4.3 09:39:28 10° S 09:44:45 71° ESE 09:50:04 10° NNE
CZ-4B R/B 2.6 09:42:41 10° N 09:46:36 71° WNW 09:50:18 10° SSW
ATLAS 2AS CENTAUR R/B 4.0 09:43:34 23° WNW 09:46:46 29° NW 09:53:35 10° NNE
Cosmos 1606 Rocket 3.8 09:45:26 10° NNW 09:49:30 41° W 09:53:34 10° SSW
Cosmos 1295 Rocket 4.4 09:45:19 10° SSW 09:51:28 69° W 09:57:34 10° N
Cosmos 1484 Rocket 3.3 09:48:26 10° NNE 09:52:13 59° E 09:56:03 10° S
IDEFIX/ARIANE 42P 3.6 09:51:02 10° NNW 09:55:03 23° WNW 09:55:39 23° WNW
BREEZE-M DEB (TANK) 4.1 09:55:46 14° NNW 09:56:20 15° N 09:57:55 10° NE
Cosmos 1943 Rocket 3.3 09:52:47 10° NNW 09:58:15 45° ENE 10:03:39 10° SE
GP-B 3.0 09:55:16 10° S 09:59:40 68° W 10:04:06 10° N
SL-8 Rocket 4.1 09:55:03 10° S 10:01:14 81° E 10:07:25 10° N
ALOS 3.2 10:03:54 10° NNE 10:08:29 52° E 10:13:00 10° S
RESURS DK-1 3.6 10:08:04 20° W 10:09:17 23° NW 10:12:38 10° N
Cosmos 1626 Rocket 3.6 10:06:44 10° S 10:11:02 81° E 10:15:22 10° N
USA 267 4.3 10:05:59 10° NE 10:11:31 30° NNW 10:16:12 14° WNW
Cosmos 2366 rocket 4.3 10:05:13 10° S 10:11:33 76° E 10:17:55 10° N
Cosmos 2228 4.0 10:13:04 10° NW 10:16:29 24° W 10:19:53 10° SW
Cosmos 1603 4.0 10:11:09 10° SSW 10:16:43 71° ESE 10:22:22 10° NNE
SL-16 R/B 2.8 10:11:49 10° WSW 10:16:57 35° WNW 10:22:09 10° N
Helios 1A Rocket 3.2 10:14:16 10° NNE 10:18:26 74° ESE 10:22:33 10° S
Meteor PRIRODA 4.1 10:16:19 10° N 10:19:49 39° WNW 10:23:18 10° SW
ASTEX 1 4.2 10:15:17 10° SSE 10:20:02 54° E 10:24:49 10° N
COSMO-SKYMED 1 2.5 10:15:58 10° S 10:20:18 73° WSW 10:24:39 10° NNW
PSLV R/B 2.5 10:18:39 20° W 10:20:19 88° NNE 10:22:57 10° E
Meteor 1-24 Rocket 3.8 10:17:33 10° SSW 10:23:19 78° W 10:29:18 10° N
Milstar 3 Cent rocket 3.9 10:20:14 10° SW 10:24:10 20° S 10:27:34 10° SE
SL-14 R/B 3.6 10:21:36 10° S 10:25:30 69° E 10:29:22 10° NNE
KORONAS-FOTON 4.3 10:25:54 10° SSW 10:29:24 37° WNW 10:32:57 10° N
Cosmos 2297 4.5 10:27:13 10° NW 10:32:11 31° WSW 10:37:08 10° SSW
Cosmos 1850 Rocket 4.5 10:31:37 10° SW 10:36:25 38° WNW 10:41:15 10° N
Cosmos 1437 Rocket 4.1 10:36:50 10° WSW 10:39:28 18° WNW 10:42:08 10° NNW
Cosmos 44 Rocket 4.2 10:36:55 10° NW 10:40:53 27° WSW 10:44:49 10° S
SJ-12 4.2 10:38:02 10° N 10:41:58 46° WNW 10:45:54 10° SW
Milstar 3 4.2 10:37:38 10° SW 10:43:22 29° S 10:49:38 10° ESE
Cosmos 1726 3.7 10:42:31 10° NW 10:44:50 16° W 10:47:09 10° SW
USA 234 3.9 10:38:53 10° SSE 10:44:53 38° SW 10:50:55 10° WNW
SL-8 R/B 3.8 10:41:13 10° WSW 10:45:59 63° NNW 10:50:44 10° ENE
Cosmos 1602 Rocket 3.7 10:41:58 10° SSW 10:46:10 50° W 10:50:23 10° N
Radarsat Rocket 4.5 10:42:30 10° NNE 10:49:04 72° ESE 10:55:00 10° S
